Flag for Germany Weather past 2 weeks in Neustrelitz, Mecklenburg-Western Pomerania, Germany

Now
76 °F

Sunny.


Feels Like: 78 °F
Forecast: 60 / 88 °F
Wind: 1 mph from Southeast

Location: Neuruppin

Current Time: Jul 26, 2014 at 1:31:45 PM

Latest Report: Jul 26, 2014 at 1:00 PM


Visibility: 6 mi

Pressure: 29.96 "Hg

Humidity: 67%

Dew point: 64 °F

Location of NeustrelitzLocation

Historic Weather in Neustrelitz — Graph

°F

Neustrelitz temperature yesterday

Maximum temperature yesterday: 74 °F (at 6:00 PM)
Minimum temperature yesterday: 62 °F (at 1:00 AM)
Average temperature yesterday: 67 °F

Past Weeks' High & Low Weather Summary

 TemperatureHumidityPressure
High90 °F (Jul 20, 4:00 PM)97% (Jul 13, 6:00 AM)30.19 "Hg (Jul 13, 6:00 AM)
Low51 °F (Jul 13, 5:00 AM)34% (Jul 18, 3:00 PM)29.72 "Hg (Jul 13, 6:00 PM)
Average69 °F70%29.98 "Hg
* Reported Jul 11 12:00 Noon — Jul 26 12:00 Noon, Neustrelitz, Weather by CustomWeather, © 2014

Note: Actual official high and low records may vary slightly from our data, if they occured in-between our weather recording intervals... More about our weather records

Advertising

Neustrelitz weather history for previous 24 hours

 ConditionsComfort  
Time TempWeatherWind HumidityBarometerVisibility
12:00 PM
Jul 26
73 °FSunny.1 mph76%29.96 "Hg6 mi
11:00 AM69 °FOvercast.2 mph83%29.97 "Hg6 mi
10:00 AM67 °FLow clouds.2 mph94%29.97 "Hg4 mi
9:00 AM65 °FLow clouds.2 mph94%29.97 "Hg2 mi
8:00 AM65 °FLow clouds.2 mph97%29.96 "Hg1 mi
7:00 AM64 °FMild.3 mph97%29.96 "Hg0 mi
6:00 AM64 °FLow clouds.3 mph97%29.95 "Hg1 mi
5:00 AM64 °FLow clouds.1 mph95%29.95 "Hg2 mi
4:00 AM65 °FLow clouds.1 mph95%29.95 "Hg3 mi
3:00 AM65 °FOvercast.1 mph94%29.94 "Hg4 mi
2:00 AM65 °FOvercast.1 mph94%29.95 "Hg6 mi
1:00 AM64 °FOvercast.1 mph93%29.96 "Hg6 mi
12:00 AM64 °FOvercast.1 mph92%29.96 "Hg6 mi
10:00 PM
Jul 25
64 °FOvercast.2 mph92%29.95 "Hg6 mi
9:00 PM64 °FOvercast.2 mph92%29.95 "Hg6 mi
8:00 PM65 °FOvercast.3 mph89%29.95 "Hg6 mi
7:00 PM73 °FOvercast.3 mph70%29.93 "Hg6 mi
6:00 PM74 °FOvercast.3 mph62%29.93 "Hg6 mi
5:00 PM73 °FOvercast.2 mph62%29.94 "Hg6 mi
4:00 PM71 °FOvercast.2 mph70%29.94 "Hg6 mi
3:00 PM71 °FOvercast.5 mph65%29.96 "Hg6 mi
2:00 PM72 °FOvercast.1 mph70%29.97 "Hg6 mi
1:00 PM72 °FOvercast.2 mph66%29.98 "Hg6 mi
Weather by CustomWeather, © 2014

See weather overviewHow to use our weather pages